Hickam AFB, HI

1:34 PM HST on February 24, 2017 (GMT -1000)
Honolulu International

Weather History for PHNL - July, 2012

Change the Weather History Date:

Wednesday, July 18, 2012

  Actual Average Record
Temperature  
Mean Temperature 81 °F 81 °F  
Max Temperature 86 °F 88 °F 91 °F (1985)
Min Temperature 75 °F 75 °F 69 °F (1981)
Degree Days  
Heating Degree Days 0 0  
Month to date heating degree days 0 0  
Since 1 June heating degree days 0 0  
Since 1 July heating degree days 0 0  
Cooling Degree Days 16 16  
Month to date cooling degree days 265 288  
Year to date cooling degree days 2256 2246  
Since 1 June cooling degree days 682 744  
Growing Degree Days 30 (Base 50)    
Moisture  
Dew Point 68 °F    
Average Humidity 70    
Maximum Humidity 82    
Minimum Humidity 58    
Precipitation  
Precipitation T in 0.02 in 0.33 in (2016)
Month to date precipitation 0.07 0.26  
Year to date precipitation 7.63 8.09  
Snow  
Snow 0.00 in - - ()
Month to date snowfall 0.0  
Since 1 June snowfall 0.0  
Since 1 July snowfall 0.0  
Snow Depth 0.00 in    
Sea Level Pressure  
Sea Level Pressure 30.03 in    
Wind  
Wind Speed 16 mph (ENE)    
Max Wind Speed 29 mph    
Max Gust Speed 37 mph    
Visibility 10 miles    
Events Rain    
T = Trace of Precipitation, MM = Missing Value Source: NWS Daily Summary

Daily Weather History Graph

Daily Weather History Graph

Search for Another Location

Airport or City:

Trip Planner

Search our weather history database for the weather conditions in past years. The results will help you decide how hot, cold, wet, or windy it might be!

Date:

Astronomy

Jul. 18, 2012 Rise Set
Actual Time 5:59 AM HST 7:15 PM HST
Civil Twilight 5:35 AM HST 7:40 PM HST
Nautical Twilight 5:06 AM HST 8:08 PM HST
Astronomical Twilight 4:36 AM HST 8:38 PM HST
Moon 5:39 AM HST (7/18) 7:02 PM HST (7/18)
Length of Visible Light 14h 04m
Length of Day
13h 16m
Waning Crescent, 0% of the Moon is Illuminated
Jul 18
Waning Crescent
Jul 18
New
Jul 25
First Quarter
Aug 1
Full
Aug 9
Last Quarter

Hourly Weather History & Observations

Time (HST) Temp. Heat Index Dew Point Humidity Pressure Visibility Wind Dir Wind Speed Gust Speed Precip Events Conditions
12:53 AM 77.0 °F - 68.0 °F 74% 30.01 in 10.0 mi NE 15.0 mph - N/A   Mostly Cloudy
1:53 AM 77.0 °F - 68.0 °F 74% 29.99 in 10.0 mi ENE 13.8 mph 21.9 mph N/A   Scattered Clouds
2:53 AM 75.9 °F - 69.1 °F 79% 29.99 in 10.0 mi ENE 15.0 mph - N/A   Mostly Cloudy
3:53 AM 75.9 °F - 69.1 °F 79% 30.00 in 10.0 mi NE 8.1 mph - 0.00 in Rain Light Rain
4:53 AM 75.9 °F - 68.0 °F 76% 30.00 in 10.0 mi NE 13.8 mph - 0.00 in   Mostly Cloudy
5:53 AM 75.0 °F - 69.1 °F 82% 30.01 in 10.0 mi ENE 9.2 mph - 0.00 in   Mostly Cloudy
6:53 AM 77.0 °F - 68.0 °F 74% 30.03 in 10.0 mi ENE 16.1 mph 21.9 mph N/A   Scattered Clouds
7:53 AM 79.0 °F - 68.0 °F 69% 30.04 in 10.0 mi ENE 18.4 mph 26.5 mph N/A   Scattered Clouds
8:53 AM 81.0 °F 83.3 °F 66.9 °F 62% 30.04 in 10.0 mi ENE 13.8 mph 23.0 mph N/A   Scattered Clouds
9:53 AM 82.9 °F 85.4 °F 66.9 °F 58% 30.04 in 10.0 mi ENE 24.2 mph 33.4 mph N/A   Scattered Clouds
10:53 AM 82.9 °F 86.5 °F 69.1 °F 63% 30.05 in 10.0 mi ENE 21.9 mph 28.8 mph N/A   Mostly Cloudy
11:53 AM 84.9 °F 88.8 °F 69.1 °F 59% 30.04 in 10.0 mi ENE 16.1 mph 28.8 mph N/A   Mostly Cloudy
12:53 PM 84.9 °F 88.8 °F 69.1 °F 59% 30.02 in 10.0 mi ENE 18.4 mph 27.6 mph N/A   Scattered Clouds
1:53 PM 84.9 °F 88.2 °F 68.0 °F 57% 30.02 in 10.0 mi ENE 23.0 mph 31.1 mph N/A   Scattered Clouds
2:53 PM 84.0 °F 87.8 °F 69.1 °F 61% 30.01 in 10.0 mi ENE 24.2 mph 33.4 mph N/A   Mostly Cloudy
3:53 PM 82.9 °F 86.5 °F 69.1 °F 63% 30.00 in 10.0 mi ENE 20.7 mph 29.9 mph N/A   Mostly Cloudy
4:53 PM 80.1 °F 82.7 °F 68.0 °F 67% 30.01 in 10.0 mi ENE 21.9 mph 33.4 mph N/A   Mostly Cloudy
5:53 PM 80.1 °F 82.7 °F 68.0 °F 67% 30.01 in 10.0 mi ENE 18.4 mph 23.0 mph N/A   Scattered Clouds
6:53 PM 77.0 °F - 68.0 °F 74% 30.03 in 10.0 mi East 16.1 mph 24.2 mph N/A   Scattered Clouds
7:53 PM 77.0 °F - 68.0 °F 74% 30.04 in 10.0 mi ENE 18.4 mph 24.2 mph N/A   Scattered Clouds
8:53 PM 77.0 °F - 69.1 °F 76% 30.06 in 10.0 mi ENE 8.1 mph - 0.00 in   Mostly Cloudy
9:53 PM 78.1 °F - 66.9 °F 68% 30.07 in 10.0 mi NE 9.2 mph - N/A   Mostly Cloudy
10:53 PM 77.0 °F - 66.9 °F 71% 30.07 in 10.0 mi ENE 13.8 mph 19.6 mph N/A   Mostly Cloudy
11:53 PM 77.0 °F - 66.9 °F 71% 30.07 in 10.0 mi ENE 16.1 mph - N/A   Mostly Cloudy